• In Hungary
  • List of Countries
  • For 7 days
  • Water Temperature
  • Satellite Maps
  • Weather Map
  • News
  • Weather Widgets
  • user-avatar
    Login

    Hourly Weather Znamenka

    Today, 20 July, Friday

    Time Temperature Precipitation Wind Pressure Humidity
    00:00 +20°C° 0.1 mm 1 mps 728 mmHg 85%
    01:00 +20°C° 0.1 mm 1 mps 728 mmHg 86%
    02:00 +19°C° 0 mm 1 mps 728 mmHg 86%
    03:00 +19°C° 0 mm 1 mps 728 mmHg 87%
    04:00 +19°C° 0 mm 1 mps 728 mmHg 88%
    05:00 +20°C° 0.4 mm 1 mps 729 mmHg 87%
    06:00 +21°C° 0.4 mm 1 mps 729 mmHg 86%
    07:00 +22°C° 0.4 mm 1 mps 729 mmHg 85%
    08:00 +23°C° 1 mm 1 mps 729 mmHg 80%
    09:00 +25°C° 1 mm 1 mps 729 mmHg 75%
    10:00 +26°C° 1 mm 1 mps 729 mmHg 71%
    11:00 +27°C° 1.1 mm 1 mps 729 mmHg 68%
    12:00 +27°C° 1.1 mm 2 mps 729 mmHg 66%
    13:00 +28°C° 1.1 mm 2 mps 729 mmHg 64%
    14:00 +28°C° 0.7 mm 1 mps 729 mmHg 64%
    15:00 +28°C° 0.7 mm 1 mps 729 mmHg 64%
    16:00 +28°C° 0.7 mm 1 mps 729 mmHg 64%
    17:00 +27°C° 0.6 mm 1 mps 729 mmHg 70%
    18:00 +26°C° 0.6 mm 2 mps 729 mmHg 76%
    19:00 +25°C° 0.6 mm 2 mps 729 mmHg 82%
    20:00 +24°C° 0.2 mm 2 mps 729 mmHg 84%
    21:00 +21°C° 0.2 mm 2 mps 729 mmHg 86%
    22:00 +20°C° 0.2 mm 2 mps 729 mmHg 88%
    23:00 +20°C° 0.2 mm 2 mps 729 mmHg 90%

    Tomorrow, 21 July, Saturday

    Time Temperature Precipitation Wind Pressure Humidity
    00:00 +19°C° 0.2 mm 2 mps 729 mmHg 91%
    01:00 +19°C° 0.2 mm 2 mps 729 mmHg 93%
    02:00 +18°C° 0.2 mm 3 mps 729 mmHg 94%
    03:00 +18°C° 0.2 mm 3 mps 729 mmHg 95%
    04:00 +17°C° 0.2 mm 3 mps 729 mmHg 96%
    05:00 +18°C° 0.2 mm 4 mps 730 mmHg 95%
    06:00 +18°C° 0.2 mm 4 mps 730 mmHg 94%
    07:00 +19°C° 0.2 mm 5 mps 730 mmHg 92%
    08:00 +20°C° 0 mm 5 mps 730 mmHg 89%
    09:00 +21°C° 0 mm 5 mps 731 mmHg 86%
    10:00 +22°C° 0 mm 5 mps 731 mmHg 83%
    11:00 +22°C° 0.3 mm 5 mps 731 mmHg 80%
    12:00 +23°C° 0.3 mm 6 mps 731 mmHg 77%
    13:00 +23°C° 0.3 mm 6 mps 731 mmHg 74%
    14:00 +23°C° 0.1 mm 6 mps 731 mmHg 74%
    15:00 +23°C° 0.1 mm 7 mps 731 mmHg 73%
    16:00 +23°C° 0.1 mm 7 mps 731 mmHg 72%
    17:00 +22°C° 0 mm 6 mps 731 mmHg 75%
    18:00 +21°C° 0 mm 5 mps 731 mmHg 79%
    19:00 +20°C° 0 mm 4 mps 731 mmHg 82%
    20:00 +19°C° 0 mm 4 mps 731 mmHg 81%
    21:00 +19°C° 0 mm 4 mps 732 mmHg 81%
    22:00 +18°C° 0 mm 4 mps 732 mmHg 80%
    23:00 +17°C° 0 mm 5 mps 732 mmHg 78%

    Day after tomorrow, 22 July, Sunday

    Time Temperature Precipitation Wind Pressure Humidity
    00:00 +16°C° 0 mm 5 mps 732 mmHg 77%
    01:00 +16°C° 0 mm 6 mps 732 mmHg 75%
    02:00 +15°C° 0 mm 5 mps 732 mmHg 77%
    03:00 +15°C° 0 mm 5 mps 732 mmHg 78%
    04:00 +14°C° 0 mm 5 mps 732 mmHg 79%
    05:00 +14°C° 0 mm 5 mps 732 mmHg 80%
    06:00 +15°C° 0 mm 6 mps 732 mmHg 81%
    07:00 +15°C° 0 mm 6 mps 732 mmHg 81%
    08:00 +16°C° 0 mm 6 mps 733 mmHg 79%
    09:00 +17°C° 0 mm 6 mps 733 mmHg 76%
    10:00 +19°C° 0 mm 6 mps 733 mmHg 74%
    11:00 +20°C° 0 mm 6 mps 733 mmHg 71%
    12:00 +21°C° 0 mm 6 mps 733 mmHg 69%
    13:00 +22°C° 0 mm 6 mps 733 mmHg 67%
    14:00 +22°C° 0 mm 6 mps 733 mmHg 65%
    15:00 +22°C° 0 mm 6 mps 733 mmHg 64%
    16:00 +22°C° 0 mm 5 mps 733 mmHg 63%
    17:00 +21°C° 0 mm 5 mps 733 mmHg 66%
    18:00 +21°C° 0 mm 4 mps 733 mmHg 70%
    19:00 +20°C° 0 mm 4 mps 733 mmHg 73%
    20:00 +18°C° 0 mm 4 mps 733 mmHg 73%
    21:00 +17°C° 0 mm 4 mps 733 mmHg 73%
    22:00 +15°C° 0 mm 4 mps 734 mmHg 73%
    23:00 +14°C° 0 mm 4 mps 734 mmHg 73%

    23 July, Monday

    Time Temperature Precipitation Wind Pressure Humidity
    00:00 +13°C° 0 mm 4 mps 734 mmHg 74%
    01:00 +12°C° 0 mm 4 mps 734 mmHg 74%
    02:00 +12°C° 0 mm 4 mps 734 mmHg 76%
    03:00 +11°C° 0 mm 4 mps 735 mmHg 79%
    04:00 +10°C° 0 mm 4 mps 735 mmHg 81%
    05:00 +11°C° 0 mm 4 mps 735 mmHg 80%
    06:00 +12°C° 0 mm 4 mps 735 mmHg 79%
    07:00 +13°C° 0 mm 5 mps 735 mmHg 78%
    08:00 +14°C° 0 mm 5 mps 736 mmHg 74%
    09:00 +16°C° 0 mm 5 mps 736 mmHg 71%
    10:00 +17°C° 0 mm 5 mps 736 mmHg 67%
    11:00 +19°C° 0 mm 5 mps 736 mmHg 65%
    12:00 +20°C° 0 mm 5 mps 736 mmHg 62%
    13:00 +21°C° 0 mm 5 mps 736 mmHg 59%
    14:00 +21°C° 0 mm 5 mps 736 mmHg 59%
    15:00 +21°C° 0 mm 4 mps 736 mmHg 59%
    16:00 +21°C° 0 mm 4 mps 736 mmHg 59%
    17:00 +21°C° 0 mm 4 mps 736 mmHg 64%
    18:00 +20°C° 0 mm 3 mps 736 mmHg 68%
    19:00 +20°C° 0 mm 2 mps 736 mmHg 73%
    20:00 +18°C° 0 mm 2 mps 736 mmHg 76%
    21:00 +16°C° 0 mm 2 mps 736 mmHg 78%
    22:00 +15°C° 0 mm 2 mps 736 mmHg 81%
    23:00 +14°C° 0 mm 2 mps 736 mmHg 81%

    24 July, Tuesday

    Time Temperature Precipitation Wind Pressure Humidity
    00:00 +14°C° 0 mm 2 mps 736 mmHg 82%
    01:00 +13°C° 0 mm 2 mps 736 mmHg 82%
    02:00 +13°C° 0 mm 2 mps 736 mmHg 82%
    03:00 +12°C° 0 mm 2 mps 736 mmHg 82%
    04:00 +12°C° 0 mm 2 mps 737 mmHg 82%
    05:00 +13°C° 0 mm 2 mps 737 mmHg 80%
    06:00 +14°C° 0 mm 2 mps 737 mmHg 78%
    07:00 +15°C° 0 mm 2 mps 737 mmHg 76%
    08:00 +17°C° 0 mm 2 mps 738 mmHg 71%
    09:00 +19°C° 0 mm 2 mps 738 mmHg 67%
    10:00 +20°C° 0 mm 3 mps 738 mmHg 63%
    11:00 +21°C° 0 mm 3 mps 738 mmHg 61%
    12:00 +22°C° 0 mm 3 mps 738 mmHg 58%
    13:00 +24°C° 0 mm 3 mps 738 mmHg 56%
    14:00 +24°C° 0 mm 3 mps 738 mmHg 57%
    15:00 +24°C° 0 mm 3 mps 737 mmHg 57%
    16:00 +25°C° 0 mm 2 mps 737 mmHg 58%
    17:00 +24°C° 0 mm 2 mps 737 mmHg 63%
    18:00 +23°C° 0 mm 2 mps 737 mmHg 68%
    19:00 +23°C° 0 mm 2 mps 737 mmHg 73%
    20:00 +20°C° 0 mm 2 mps 737 mmHg 77%
    21:00 +19°C° 0 mm 2 mps 737 mmHg 82%
    22:00 +18°C° 0 mm 1 mps 737 mmHg 86%
    23:00 +18°C° 0 mm 1 mps 737 mmHg 86%

    25 July, Wednesday

    Time Temperature Precipitation Wind Pressure Humidity
    00:00 +16°C° 0 mm 1 mps 737 mmHg 87%
    01:00 +16°C° 0 mm 1 mps 737 mmHg 88%
    02:00 +16°C° 0 mm 1 mps 737 mmHg 89%
    03:00 +16°C° 0 mm 2 mps 737 mmHg 89%
    04:00 +15°C° 0 mm 2 mps 737 mmHg 90%
    05:00 +17°C° 0 mm 2 mps 738 mmHg 88%
    06:00 +18°C° 0 mm 2 mps 738 mmHg 85%
    07:00 +19°C° 0 mm 2 mps 738 mmHg 83%
    08:00 +21°C° 0 mm 2 mps 738 mmHg 77%
    09:00 +23°C° 0 mm 2 mps 738 mmHg 72%
    10:00 +25°C° 0 mm 2 mps 738 mmHg 66%
    11:00 +26°C° 0 mm 3 mps 738 mmHg 63%
    12:00 +27°C° 0 mm 3 mps 738 mmHg 60%
    13:00 +28°C° 0 mm 3 mps 738 mmHg 57%
    14:00 +28°C° 0 mm 3 mps 738 mmHg 57%
    15:00 +28°C° 0 mm 3 mps 738 mmHg 56%
    16:00 +28°C° 0 mm 3 mps 738 mmHg 55%
    17:00 +27°C° 0 mm 3 mps 737 mmHg 61%
    18:00 +26°C° 0 mm 2 mps 737 mmHg 66%
    19:00 +25°C° 0 mm 2 mps 737 mmHg 72%
    20:00 +24°C° 0 mm 2 mps 737 mmHg 75%
    21:00 +21°C° 0 mm 2 mps 737 mmHg 78%
    22:00 +21°C° 0 mm 1 mps 737 mmHg 82%
    23:00 +20°C° 0 mm 1 mps 737 mmHg 83%
    Show more